Regional Weather Roundup
Issued by NWS Northern Indiana

Home | Current Version | Previous Version | Text Only | Print | Product List | Glossary Off
Versions: 1 2 3 4 5 6 7 8 9 10 11 12 13 14 15 16 17 18 19 20 21 22 23 24 25 26 27 28 29 30 31 32 33 34 35 36 37 38 39 40 41 42 43 44 45 46 47 48 49 50

000
ASUS43 KIWX 012100
RWRIWX

KIWX WEATHER ROUNDUP
NATIONAL WEATHER SERVICE NORTHERN INDIANA
500 PM EDT WED APR 01 2015

NOTE: "FAIR" INDICATES FEW OR NO CLOUDS BELOW 12,000 FEET WITH NO
SIGNIFICANT WEATHER AND/OR OBSTRUCTIONS TO VISIBILITY.

* THESE STATIONS ARE NOT UNDER NWS QUALITY CONTROL. THEY ALSO MAY NOT
  REPORT WEATHER SUCH AS PRECIPITATION OR FOG.

INZ001>027-012200-
NORTHERN INDIANA

CITY           SKY/WX    TMP DP  RH WIND       PRES   REMARKS
GARY*          MOSUNNY   73  23  15 S14G25    29.95F
SOUTH BEND     SUNNY     70  31  23 VRB6G17   29.98F
ELKHART*       SUNNY     68  21  17 S7        30.00F
GOSHEN         SUNNY     68  37  32 S13       30.00F
ANGOLA*        SUNNY     66  36  32 SW5       30.02F
FORT WAYNE     MOSUNNY   67  34  29 SW6       30.04F
PERU/GRISSOM   SUNNY     69  36  29 S13       30.02F

$$
INZ028>050-012200-
CENTRAL INDIANA

CITY           SKY/WX    TMP DP  RH WIND       PRES   REMARKS
LAFAYETTE      SUNNY     69  35  28 S10G17    30.00F
KOKOMO*        SUNNY     66  37  34 S13       30.03F
MUNCIE*        SUNNY     67  32  27 S9        30.04F
INDIANAPOLIS   MOSUNNY   68  33  27 SE15G21   30.02F

$$
MIZ043>046-050>051-056>058-064>065-071>073-077>080-012200-
SOUTHWEST LOWER MICHIGAN

CITY           SKY/WX    TMP DP  RH WIND       PRES   REMARKS
BATTLE CREEK   SUNNY     66  34  30 S9        30.00F
BENTON HARBOR  SUNNY     69  36  29 S8        29.96F
COLDWATER*     SUNNY     65  31  28 CALM      30.01F
HILLSDALE*     SUNNY     65  31  27 CALM      30.02F
HOLLAND        SUNNY     67  35  30 S7        29.96F
GRAND RAPIDS   MOSUNNY   65  35  33 S9        29.97F
KALAMAZOO        N/A     67  34  29 MISG      30.00F
STURGIS*       SUNNY     66  37  34 S7        30.00F
THREE RIVERS*  FAIR      67  35  31 S7        30.00F

$$
OHZ001>008-015>018-024>025-012200-
NORTHWEST OHIO

CITY           SKY/WX    TMP DP  RH WIND       PRES   REMARKS
DEFIANCE       SUNNY     66  35  31 SW8       30.04F
FINDLAY        SUNNY     65  33  30 SW6       30.05F
TOLEDO EXPRESS SUNNY     65  33  30 W8        30.04F
TOLEDO METCALF SUNNY     64  35  34 N3        30.05F
LIMA           SUNNY     66  33  29 S6        30.05F

$$
AND FOR LAKE MICHIGAN COASTAL AND OPEN LAKE BUOY OBSERVATIONS

STATION/POSITION TEMP    WIND        PRES    VSBY  WAVE
                 AIR SEA DIR/SP/G                  HT/PER
                 (F)     (DEG/KT/KT) (MB)    (MI)  (FT/S)
CALUMET HARBOR    70     170/ 13/ 21 1012.8F
MICHIGAN CITY     49      30/ 10/ 12   N/A
BURNS HARBOR      68     190/ 11/ 21 1014.9S
SAINT JOSEPH      56     320/  2/  7 1015.6F

$$
&&


USA.gov is the U.S. government's official web portal to all federal, state and local government web resources and services.